Starlink 31633

operational
NORAD ID: 59331 Int'l Des: 2024-057 Owner: SPXS Country: US Constellation: starlink
LEOCIRCULAR

About Starlink 31633

Description loading...

Live Position

Loading 3D Globe...

Upcoming Passes

Altitude History

Altitude vs Time

uPlot chart will show altitude changes over time

Two-Line Element Set

1 59331U 24057M 25304.72630699 -.00001085 00000-0 -29961-4 0 9992
2 59331 43.0002 195.5720 0000708 289.9798 70.0977 15.27555620 90117
Epoch: Oct 31, 2025 • Age: 24 hours

Current Status

Altitude 485.4 km
Velocity 7.63 km/s
Sub-Earth Point 36.83°N, 13.32°E
Launch Date Mar 25, 2024
Age 1.6 years
Type internet

Technical Details

Classification Payload
Mass 730.00 kg
Dry Mass 700.00 kg
Total Mass 730.00 kg
Length 0.30 m
Diameter 4.10 m
Span 29.00 m
Shape Box + pan
Manufacturer SPXS
Bus Type Starlink V2M
Phase Status In Orbit
Owner/State SPXS/US

Large Constellations

Loading constellations...